Regional Weather Roundup
Issued by NWS

Home | Current Version | Previous Version | Text Only | Print | Product List | Glossary Off
Versions: 1 2 3 4 5 6 7 8 9 10 11 12 13 14 15 16 17 18 19 20 21 22 23 24 25 26 27 28 29 30 31 32 33 34 35 36 37 38 39 40 41 42 43 44 45 46 47 48 49 50

000
ASUS43 KLSX 031059
RWRMO

WEATHER SUMMARY FOR MISSOURI
NATIONAL WEATHER SERVICE SPRINGFIELD MO
600 AM CDT WED JUN 03 2015

NOTE: "FAIR" INDICATES FEW OR NO CLOUDS BELOW 12,000 FEET WITH NO
       SIGNIFICANT WEATHER AND/OR OBSTRUCTIONS TO VISIBILITY.
       CURRENT SKY AND/OR WEATHER CONDITIONS ARE NOT AVAILABLE FOR
       CHILLICOTHE AND FARMINGTON.

MOZ001>031-035>038-043-044-053-054-031200-
...NORTHERN AND WESTERN MISSOURI...

CITY           SKY/WX    TMP DP  RH WIND       PRES   REMARKS
KANSAS CTY INT CLOUDY    64  61  90 SE9       29.90F
KANSAS C DTWN  CLOUDY    67  59  75 SE5       29.90F
LEE`S SUMMIT   CLOUDY    65  60  84 VRB5      29.92S THUNDER
ST JOSEPH      MOCLDY    66  61  84 S9        29.89S
CHILLICOTHE      N/A     63  57  81 SE8       29.96S
KIRKSVILLE     CLEAR     57  56  96 SE7       29.98F FOG

$$
MOZ066>068-077>081-088>096-101>105-031200-
...SOUTHWEST MISSOURI...

CITY           SKY/WX    TMP DP  RH WIND       PRES   REMARKS
SPRINGFIELD    CLOUDY    61  59  93 SE10      29.99S
JOPLIN         CLEAR     65  63  93 SE10      29.95S

$$
MOZ032>034-039>042-045>050-055>058-069>072-031200-
...CENTRAL MISSOURI...

CITY           SKY/WX    TMP DP  RH WIND       PRES   REMARKS
COLUMBIA       MOCLDY    57  55  93 SE8       30.00F
JEFFERSON CITY MOCLDY    58  55  90 E8        30.00F
ROLLA          FOG       54  54 100 S10       30.01S VSB 1
SEDALIA        CLOUDY    61  57  87 SE7       29.97F
OSAGE BEACH    CLOUDY    57  54  88 S6        29.99F

$$
MOZ051-052-059>065-031200-
...EAST CENTRAL MISSOURI...

CITY           SKY/WX    TMP DP  RH WIND       PRES   REMARKS
ST LOUIS INTL  MOCLDY    61  54  77 S5        30.04S
SPIRIT OF STL  CLOUDY    59  58  96 CALM      30.02F
ST CHARLES     CLOUDY    58  56  93 E3        30.03S FOG

$$
MOZ072>076-082>087-097>100-106>115-031200-
...SOUTH CENTRAL AND SOUTHEAST MISSOURI...

CITY           SKY/WX    TMP DP  RH WIND       PRES   REMARKS
CAPE GIRARDEAU CLOUDY    62  59  90 NE3       30.04R
FARMINGTON     CLOUDY    59  55  88 S5        30.08R
POPLAR BLUFF   CLEAR     55  53  93 CALM      30.03S FOG
WEST PLAINS    CLOUDY    57  54  89 S5        30.05R

$$


USA.gov is the U.S. government's official web portal to all federal, state and local government web resources and services.